Location: Basse Occidentale du Courleau
(48.3833°N, 4.8333°W)
Time: 19:21:15
(UTC+00:00)

Cosmos 1328 - Pass Details

Date: 05 July 2020
Orbit: 538 x 546 km, 82.5° (Epoch: 05 August)

Event Time Altitude Azimuth Distance (km) Brightness Sun altitude
Exits shadow 21:37:14 - 191° (S) 2,465 6.8 -9.7°
Reaches altitude 10° 21:38:50 10° 192° (SSW) 1,804 6.1 -9.9°
Maximum altitude 21:42:48 80° 279° (W) 558 3.9 -10.3°
Drops below altitude 10° 21:46:48 10° 7° (N) 1,816 7.2 -10.7°
Sets 21:48:58 0° 9° (N) 2,712 8.1 -10.9°
